Location: East Horndon
(51.5667°N, 0.3500°E)
Time: 09:17:43
(UTC+00:00)

SL-08 RB Rocket - Pass Details

Date: 08 November 2025
Orbit: 632 x 667 km, 97.8° (Epoch: 11 December)

Event Time Altitude Azimuth Distance (km) Brightness Sun altitude
Rises 04:44:44 0° 11° (NNE) 3,019 7.2 -21.9°
Reaches altitude 10° 04:46:59 10° 9° (N) 2,098 6.4 -21.5°
Maximum altitude 04:51:31 65° 288° (WNW) 730 3.6 -20.8°
Enters shadow 04:53:27 33° 218° (SW) 1,108 4.5 -20.5°
